Location: *
(37.9500°N, 27.3666°E)
Time: 04:55:37
(UTC+00:00)

deb Chang Zheng 4 - Pass Details

Date: 24 October 2021
Orbit: 595 x 616 km, 98.6° (Epoch: 03 December)

Event Time Altitude Azimuth Distance (km) Brightness Sun altitude
Rises 16:00:22 0° 159° (SSE) 2,820 6.8 -8.4°
Reaches altitude 10° 16:02:32 10° 157° (SSE) 1,924 5.9 -8.9°
Maximum altitude 16:06:40 68° 75° (ENE) 646 3.4 -9.7°
Drops below altitude 10° 16:10:52 10° 352° (N) 1,947 6.1 -10.5°
Sets 16:13:03 0° 350° (N) 2,858 7.0 -10.9°
